When you browse on this site, cookies collect data to enhance your experience and personalize the content and advertising you see.
Visit our Privacy Policy to learn more. By continuing to use the site, you agree to this use of cookies and data.
  • In Deutschland
  • Länderverzeichnis
  • Für 7 Tage
  • Wassertemperatur
  • Satellitenkarten
  • Wetterkarte
  • Widgets
  • user-avatar
    Anmelden

    Stündliche Wetter Ahlerstedt

    Heute, 23 Februar, Samstag

    Zeit Temperatur Niederschläge Wind Luftdruck Luftfeuchtigkeit
    00:00 0°C° 0 mm 3 m/S 778 mmHg 75%
    01:00 +1°C° 0 mm 2 m/S 778 mmHg 81%
    02:00 +1°C° 0 mm 2 m/S 778 mmHg 80%
    03:00 -1°C° 0 mm 2 m/S 778 mmHg 79%
    04:00 -1°C° 0 mm 3 m/S 778 mmHg 78%
    05:00 -1°C° 0 mm 3 m/S 778 mmHg 77%
    06:00 -1°C° 0 mm 3 m/S 778 mmHg 77%
    07:00 -2°C° 0 mm 2 m/S 778 mmHg 77%
    08:00 -1°C° 0 mm 3 m/S 778 mmHg 70%
    09:00 0°C° 0 mm 3 m/S 778 mmHg 63%
    10:00 +1°C° 0 mm 3 m/S 777 mmHg 56%
    11:00 +3°C° 0 mm 3 m/S 777 mmHg 52%
    12:00 +4°C° 0 mm 3 m/S 777 mmHg 48%
    13:00 +7°C° 0 mm 3 m/S 777 mmHg 44%
    14:00 +7°C° 0 mm 3 m/S 776 mmHg 43%
    15:00 +7°C° 0 mm 3 m/S 776 mmHg 43%
    16:00 +8°C° 0 mm 2 m/S 776 mmHg 43%
    17:00 +6°C° 0 mm 2 m/S 776 mmHg 46%
    18:00 +5°C° 0 mm 2 m/S 776 mmHg 49%
    19:00 +3°C° 0 mm 2 m/S 776 mmHg 52%
    20:00 +3°C° 0 mm 2 m/S 776 mmHg 52%
    21:00 +3°C° 0 mm 2 m/S 776 mmHg 53%
    22:00 +2°C° 0 mm 2 m/S 776 mmHg 54%
    23:00 +2°C° 0 mm 2 m/S 776 mmHg 54%

    Morgen, 24 Februar, Sonntag

    Zeit Temperatur Niederschläge Wind Luftdruck Luftfeuchtigkeit
    00:00 +2°C° 0 mm 2 m/S 776 mmHg 55%
    01:00 +2°C° 0 mm 2 m/S 776 mmHg 56%
    02:00 +2°C° 0 mm 2 m/S 775 mmHg 56%
    03:00 +2°C° 0 mm 2 m/S 775 mmHg 57%
    04:00 +3°C° 0 mm 1 m/S 775 mmHg 58%
    05:00 +3°C° 0 mm 1 m/S 775 mmHg 59%
    06:00 +2°C° 0 mm 1 m/S 775 mmHg 60%
    07:00 +2°C° 0 mm 1 m/S 775 mmHg 60%
    08:00 +4°C° 0 mm 1 m/S 775 mmHg 58%
    09:00 +5°C° 0 mm 1 m/S 776 mmHg 56%
    10:00 +7°C° 0 mm 1 m/S 776 mmHg 53%
    11:00 +8°C° 0 mm 1 m/S 776 mmHg 50%
    12:00 +10°C° 0 mm 1 m/S 776 mmHg 47%
    13:00 +11°C° 0 mm 1 m/S 776 mmHg 44%
    14:00 +12°C° 0 mm 1 m/S 776 mmHg 46%
    15:00 +12°C° 0 mm 1 m/S 776 mmHg 48%
    16:00 +12°C° 0 mm 1 m/S 775 mmHg 50%
    17:00 +10°C° 0 mm 1 m/S 776 mmHg 55%
    18:00 +9°C° 0 mm 1 m/S 776 mmHg 60%
    19:00 +7°C° 0 mm 1 m/S 776 mmHg 65%
    20:00 +6°C° 0 mm 1 m/S 776 mmHg 65%
    21:00 +6°C° 0 mm 1 m/S 776 mmHg 66%
    22:00 +4°C° 0 mm 0 m/S 776 mmHg 67%
    23:00 +5°C° 0 mm 1 m/S 776 mmHg 67%

    übermorgen, 25 Februar, Montag

    Zeit Temperatur Niederschläge Wind Luftdruck Luftfeuchtigkeit
    00:00 +5°C° 0 mm 1 m/S 776 mmHg 67%
    01:00 +4°C° 0 mm 1 m/S 776 mmHg 67%
    02:00 +4°C° 0 mm 1 m/S 776 mmHg 67%
    03:00 +4°C° 0 mm 1 m/S 776 mmHg 67%
    04:00 +4°C° 0 mm 1 m/S 776 mmHg 68%
    05:00 +4°C° 0 mm 1 m/S 776 mmHg 67%
    06:00 +3°C° 0 mm 1 m/S 776 mmHg 67%
    07:00 +3°C° 0 mm 1 m/S 776 mmHg 67%
    08:00 +5°C° 0 mm 1 m/S 776 mmHg 64%
    09:00 +6°C° 0 mm 1 m/S 776 mmHg 60%
    10:00 +8°C° 0 mm 1 m/S 776 mmHg 56%
    11:00 +9°C° 0 mm 1 m/S 776 mmHg 54%
    12:00 +10°C° 0 mm 2 m/S 776 mmHg 51%
    13:00 +12°C° 0 mm 2 m/S 776 mmHg 49%
    14:00 +12°C° 0 mm 2 m/S 775 mmHg 51%
    15:00 +13°C° 0 mm 2 m/S 775 mmHg 54%
    16:00 +13°C° 0 mm 2 m/S 775 mmHg 56%
    17:00 +10°C° 0 mm 2 m/S 775 mmHg 62%
    18:00 +8°C° 0 mm 2 m/S 775 mmHg 68%
    19:00 +6°C° 0 mm 2 m/S 775 mmHg 74%
    20:00 +5°C° 0 mm 2 m/S 775 mmHg 73%
    21:00 +5°C° 0 mm 2 m/S 775 mmHg 72%
    22:00 +4°C° 0 mm 2 m/S 775 mmHg 72%
    23:00 +4°C° 0 mm 2 m/S 774 mmHg 71%

    26 Februar, Dienstag

    Zeit Temperatur Niederschläge Wind Luftdruck Luftfeuchtigkeit
    00:00 +4°C° 0 mm 2 m/S 774 mmHg 70%
    01:00 +4°C° 0 mm 2 m/S 774 mmHg 69%
    02:00 +3°C° 0 mm 2 m/S 774 mmHg 68%
    03:00 +3°C° 0 mm 2 m/S 774 mmHg 67%
    04:00 +3°C° 0 mm 2 m/S 773 mmHg 66%
    05:00 +2°C° 0 mm 2 m/S 773 mmHg 65%
    06:00 +2°C° 0 mm 2 m/S 773 mmHg 65%
    07:00 +2°C° 0 mm 2 m/S 773 mmHg 64%
    08:00 +4°C° 0 mm 2 m/S 773 mmHg 61%
    09:00 +5°C° 0 mm 2 m/S 773 mmHg 58%
    10:00 +7°C° 0 mm 2 m/S 773 mmHg 55%
    11:00 +8°C° 0 mm 3 m/S 773 mmHg 52%
    12:00 +10°C° 0 mm 3 m/S 773 mmHg 50%
    13:00 +12°C° 0 mm 3 m/S 773 mmHg 48%
    14:00 +12°C° 0 mm 3 m/S 772 mmHg 51%
    15:00 +12°C° 0 mm 3 m/S 772 mmHg 53%
    16:00 +12°C° 0 mm 3 m/S 772 mmHg 56%
    17:00 +10°C° 0 mm 2 m/S 772 mmHg 62%
    18:00 +8°C° 0 mm 2 m/S 772 mmHg 69%
    19:00 +6°C° 0 mm 2 m/S 772 mmHg 76%
    20:00 +6°C° 0 mm 2 m/S 772 mmHg 77%
    21:00 +5°C° 0 mm 2 m/S 772 mmHg 78%
    22:00 +5°C° 0 mm 2 m/S 771 mmHg 78%
    23:00 +5°C° 0 mm 2 m/S 771 mmHg 79%

    27 Februar, Mittwoch

    Zeit Temperatur Niederschläge Wind Luftdruck Luftfeuchtigkeit
    00:00 +4°C° 0 mm 2 m/S 771 mmHg 80%
    01:00 +4°C° 0 mm 2 m/S 771 mmHg 80%
    02:00 +4°C° 0 mm 2 m/S 770 mmHg 81%
    03:00 +4°C° 0 mm 2 m/S 770 mmHg 82%
    04:00 +4°C° 0 mm 2 m/S 770 mmHg 83%
    05:00 +3°C° 0 mm 2 m/S 769 mmHg 84%
    06:00 +3°C° 0 mm 2 m/S 769 mmHg 84%
    07:00 +3°C° 0 mm 2 m/S 769 mmHg 85%
    08:00 +5°C° 0 mm 2 m/S 769 mmHg 80%
    09:00 +6°C° 0 mm 2 m/S 768 mmHg 74%
    10:00 +8°C° 0 mm 2 m/S 768 mmHg 69%
    11:00 +10°C° 0 mm 2 m/S 768 mmHg 64%
    12:00 +12°C° 0 mm 2 m/S 767 mmHg 59%
    13:00 +13°C° 0 mm 3 m/S 767 mmHg 55%
    14:00 +13°C° 0 mm 3 m/S 766 mmHg 56%
    15:00 +14°C° 0 mm 2 m/S 765 mmHg 56%
    16:00 +14°C° 0 mm 2 m/S 765 mmHg 57%
    17:00 +12°C° 0 mm 2 m/S 764 mmHg 63%
    18:00 +10°C° 0 mm 2 m/S 764 mmHg 69%
    19:00 +8°C° 0 mm 3 m/S 763 mmHg 75%
    20:00 +8°C° 0 mm 3 m/S 763 mmHg 77%
    21:00 +8°C° 0 mm 3 m/S 762 mmHg 80%
    22:00 +7°C° 0 mm 3 m/S 762 mmHg 82%
    23:00 +6°C° 0 mm 4 m/S 761 mmHg 85%

    28 Februar, Donnerstag

    Zeit Temperatur Niederschläge Wind Luftdruck Luftfeuchtigkeit
    00:00 +5°C° 0 mm 4 m/S 761 mmHg 88%
    01:00 +5°C° 0 mm 4 m/S 760 mmHg 90%
    02:00 +5°C° 0 mm 5 m/S 760 mmHg 92%
    03:00 +5°C° 0 mm 5 m/S 759 mmHg 93%
    04:00 +5°C° 0 mm 5 m/S 759 mmHg 95%
    05:00 +5°C° 0 mm 6 m/S 758 mmHg 93%
    06:00 +5°C° 0 mm 6 m/S 758 mmHg 91%
    07:00 +7°C° 0 mm 6 m/S 758 mmHg 90%
    08:00 +7°C° 0 mm 6 m/S 758 mmHg 87%
    09:00 +6°C° 0 mm 7 m/S 758 mmHg 84%
    10:00 +8°C° 0 mm 7 m/S 759 mmHg 81%
    11:00 +8°C° 0 mm 7 m/S 759 mmHg 81%
    12:00 +6°C° 0 mm 7 m/S 759 mmHg 82%
    13:00 +6°C° 0 mm 7 m/S 760 mmHg 82%
    14:00 +8°C° 0 mm 7 m/S 760 mmHg 81%
    15:00 +8°C° 0 mm 7 m/S 760 mmHg 81%
    16:00 +8°C° 0 mm 6 m/S 760 mmHg 80%
    17:00 +7°C° 0 mm 6 m/S 761 mmHg 82%
    18:00 +7°C° 0 mm 6 m/S 761 mmHg 84%
    19:00 +5°C° 0 mm 6 m/S 761 mmHg 87%
    20:00 +5°C° 0.4 mm 6 m/S 761 mmHg 88%
    21:00 +5°C° 0.4 mm 6 m/S 761 mmHg 89%
    22:00 +5°C° 0.4 mm 6 m/S 761 mmHg 91%
    23:00 +5°C° 0.2 mm 6 m/S 761 mmHg 90%
    Mehr zeigen